Change the Weather History Date:

Saturday, March 9, 2013

  Actual Average Record
Temperature  
Mean Temperature 48 °F 40 °F  
Max Temperature 57 °F 49 °F 75 °F (1918)
Min Temperature 38 °F 30 °F 6 °F (1969)
Degree Days  
Heating Degree Days 17 26  
Month to date heating degree days 295 245  
Since 1 July heating degree days 4204 4516  
Cooling Degree Days 0 0  
Month to date cooling degree days 0 0  
Year to date cooling degree days 0 0  
Moisture  
Dew Point 36 °F    
Average Humidity 70    
Maximum Humidity 85    
Minimum Humidity 54    
Precipitation  
Precipitation 0.12 in 0.08 in 1.08 in (1882)
Month to date precipitation 0.31 0.73  
Year to date precipitation 6.03 4.36  
Snow  
Snow 0.00 in 0.20 in 5.90 in (1979)
Month to date snowfall 1.0 1.1  
Since 1 July snowfall 14.5 19.2  
Snow Depth 0.00 in    
Sea Level Pressure  
Sea Level Pressure 30.01 in    
Wind  
Wind Speed 15 mph (SE)    
Max Wind Speed 28 mph    
Max Gust Speed 33 mph    
Visibility 10 miles    
Events Rain    
T = Trace of Precipitation, MM = Missing Value Source: NWS Daily Summary

Daily Weather History Graph

Daily Weather History Graph

Search for Another Location

Airport or City:

Trip Planner

Search our weather history database for the weather conditions in past years. The results will help you decide how hot, cold, wet, or windy it might be!

Date:

Astronomy

Mar. 09, 2013 Rise Set
Actual Time 6:19 AM CST 5:59 PM CST
Civil Twilight 5:52 AM CST 6:26 PM CST
Nautical Twilight 5:21 AM CST 6:57 PM CST
Astronomical Twilight 4:49 AM CST 7:29 PM CST
Moon 4:43 AM CST (3/9) 4:01 PM CST (3/9)
Length of Visible Light 12h 34m
Length of Day
11h 40m
Waning Crescent, 5% of the Moon is Illuminated
Mar 9
Waning Crescent
Mar 11
New
Mar 19
First Quarter
Mar 27
Full
Apr 2
Last Quarter

Hourly Weather History & Observations

Time (CST) Temp. Windchill Dew Point Humidity Pressure Visibility Wind Dir Wind Speed Gust Speed Precip Events Conditions
12:52 AM 41.0 °F 34.3 °F 33.1 °F 73% 30.22 in 10.0 mi SE 11.5 mph - N/A   Scattered Clouds
1:52 AM 41.0 °F 34.3 °F 33.1 °F 73% 30.20 in 10.0 mi SE 11.5 mph - N/A   Overcast
2:52 AM 41.0 °F 34.3 °F 33.1 °F 73% 30.18 in 10.0 mi SE 11.5 mph - 0.00 in Rain Light Rain
3:52 AM 39.9 °F 32.9 °F 33.1 °F 77% 30.16 in 10.0 mi SE 11.5 mph - N/A   Scattered Clouds
4:52 AM 39.9 °F 33.9 °F 32.0 °F 73% 30.17 in 10.0 mi ESE 9.2 mph - N/A   Mostly Cloudy
5:52 AM 39.9 °F 33.4 °F 30.9 °F 70% 30.17 in 10.0 mi ESE 10.4 mph - N/A   Overcast
6:52 AM 39.9 °F 33.4 °F 30.9 °F 70% 30.18 in 10.0 mi SE 10.4 mph - N/A   Overcast
7:52 AM 39.9 °F 32.5 °F 32.0 °F 73% 30.17 in 10.0 mi SE 12.7 mph - 0.00 in Rain Light Rain
8:52 AM 39.0 °F 32.8 °F 34.0 °F 82% 30.15 in 8.0 mi SE 9.2 mph - 0.05 in Rain Light Rain
9:52 AM 39.9 °F 32.9 °F 35.1 °F 83% 30.13 in 10.0 mi SE 11.5 mph - 0.02 in Rain Light Rain
10:52 AM 42.1 °F 34.9 °F 35.1 °F 76% 30.08 in 9.0 mi SSE 13.8 mph - 0.03 in Rain Light Rain
11:52 AM 44.1 °F 35.9 °F 37.0 °F 76% 30.07 in 10.0 mi SSE 19.6 mph 24.2 mph 0.00 in Rain Light Rain
12:52 PM 44.1 °F 37.1 °F 37.0 °F 76% 30.01 in 10.0 mi SE 15.0 mph - 0.02 in Rain Light Rain
1:52 PM 46.9 °F - 39.9 °F 77% 29.95 in 10.0 mi SE 17.3 mph 20.7 mph 0.00 in   Overcast
2:52 PM 53.1 °F - 39.9 °F 61% 29.91 in 10.0 mi SSE 19.6 mph 26.5 mph N/A   Clear
3:52 PM 55.9 °F - 41.0 °F 57% 29.88 in 10.0 mi SE 18.4 mph 29.9 mph N/A   Clear
4:52 PM 55.9 °F - 41.0 °F 57% 29.87 in 10.0 mi SSE 17.3 mph - N/A   Clear
5:52 PM 55.0 °F - 39.9 °F 57% 29.87 in 10.0 mi SSE 16.1 mph 23.0 mph N/A   Partly Cloudy
6:52 PM 53.1 °F - 39.0 °F 59% 29.85 in 10.0 mi SSE 19.6 mph 28.8 mph N/A   Mostly Cloudy
7:52 PM 53.1 °F - 39.0 °F 59% 29.84 in 10.0 mi SSE 26.5 mph 32.2 mph N/A   Overcast
8:52 PM 53.1 °F - 37.0 °F 55% 29.83 in 10.0 mi SSE 23.0 mph 31.1 mph N/A   Clear
9:52 PM 53.1 °F - 37.0 °F 55% 29.81 in 10.0 mi SSE 19.6 mph 28.8 mph N/A   Clear
10:52 PM 52.0 °F - 37.9 °F 59% 29.81 in 10.0 mi South 17.3 mph 26.5 mph 0.00 in   Overcast
11:52 PM 53.1 °F - 39.0 °F 59% 29.80 in 10.0 mi South 16.1 mph 26.5 mph 0.00 in Rain Light Rain